Lapse_Rate
7.0 7.4 7.5 7.2 6.9 6.6 6.4 6.0 5.5 5.6 5.5 5.4 5.6 5.4 5.1 5.1 5.3 5.0 5.3 5.7 5.5 5.5 5.2 5.5 6.0 6.3 6.2 6.2 6.4 6.3 6.1 6.2 6.8 6.9 7.7 8.2 8.1 8.1 7.3 7.0 6.7 6.8 6.7 6.7 7.1 7.6 6.6 6.1 5.9 6.1 6.4 6.5 6.4 6.5
7.1 7.4 7.5 7.2 6.9 6.5 6.3 6.0 5.6 5.5 5.5 5.6 5.7 5.4 5.2 5.3 5.5 5.3 5.2 5.6 5.6 6.1 6.1 6.1 6.2 5.7 5.6 5.9 6.3 6.5 6.7 7.2 7.4 7.3 7.8 7.6 7.8 7.5 7.1 6.8 6.9 6.7 6.8 6.6 6.9 6.5 6.5 6.5 6.5 6.5 6.6 6.6 6.4 6.4
7.1 7.5 7.4 7.0 6.8 6.5 6.4 6.1 5.8 5.5 5.4 5.5 5.8 5.9 5.8 5.8 5.8 5.7 5.6 5.8 5.9 5.9 5.6 6.1 6.2 6.7 6.9 6.8 6.9 6.9 6.6 7.1 7.5 7.5 7.4 7.1 7.3 7.3 7.4 7.1 6.8 6.8 6.5 6.2 6.7 5.6 6.5 6.8 6.7 6.7 6.6 6.5 6.5 6.6
7.2 7.5 7.4 7.0 6.8 6.6 6.4 6.1 5.7 5.3 5.2 4.9 5.6 6.1 6.5 6.2 6.1 5.9 5.9 5.8 5.7 6.0 6.1 5.9 6.2 6.5 6.7 6.7 6.6 6.8 6.9 7.2 7.5 7.5 7.3 7.3 7.0 7.6 7.3 6.9 6.5 6.2 6.4 6.2 5.8 5.7 6.5 6.5 6.7 6.6 6.6 6.6 6.8 7.0
7.3 7.7 7.2 7.1 6.9 6.7 6.5 6.1 5.7 5.5 5.3 5.4 6.1 6.7 6.5 6.4 6.3 6.1 6.1 6.4 6.6 6.1 6.0 6.0 6.0 6.3 6.5 6.6 6.7 6.8 6.8 6.8 6.9 7.1 7.0 6.8 6.6 6.7 6.6 6.7 6.3 6.3 6.1 6.4 6.5 6.5 6.3 6.7 6.5 6.5 6.7 7.0 7.1 7.2
7.3 7.5 7.5 7.2 6.9 6.8 6.5 6.2 5.8 5.6 5.5 5.6 6.4 6.3 6.4 6.4 6.2 6.2 6.1 6.4 6.7 6.5 6.2 6.0 6.0 6.1 6.4 6.6 6.7 6.8 6.9 6.6 6.6 6.6 6.4 6.3 6.8 6.8 6.5 6.5 6.0 6.3 6.4 6.4 6.5 6.5 6.4 6.3 6.5 6.7 6.8 7.1 7.1 7.2
7.6 7.6 7.3 7.2 6.9 6.7 6.6 6.4 6.0 5.7 5.6 6.2 6.1 6.2 6.2 6.3 6.4 6.5 6.4 6.4 6.6 6.9 6.8 6.1 5.9 6.2 6.3 6.5 6.6 6.6 6.6 6.3 6.1 6.7 6.4 6.4 6.5 6.5 6.3 6.4 6.3 6.6 6.6 6.6 6.4 6.3 6.2 6.4 6.7 6.9 7.0 7.0 7.2 7.2
7.7 7.6 7.5 7.2 7.0 6.8 6.7 6.5 6.1 6.0 5.7 6.1 6.3 6.2 6.2 6.5 6.6 6.7 6.7 6.6 6.5 6.8 6.8 6.6 6.2 6.1 6.3 6.0 6.5 6.3 6.6 6.4 6.7 6.3 6.5 6.1 6.6 6.3 6.1 6.0 6.7 6.6 6.7 6.6 6.4 6.3 6.3 6.6 6.9 7.1 7.2 7.4 7.3 7.2
7.7 7.5 7.5 7.3 7.0 6.8 6.7 6.5 6.2 6.2 6.1 6.4 6.4 6.6 6.7 6.8 6.5 6.7 7.0 6.9 6.8 7.2 6.8 6.8 6.5 6.2 6.3 6.3 6.4 6.3 6.1 6.2 6.5 6.5 6.3 6.3 6.2 6.4 6.2 6.2 6.6 6.8 6.7 6.6 6.4 6.5 6.8 7.1 7.3 7.4 7.4 7.4 7.3 7.2
7.6 7.7 7.7 7.3 7.2 7.0 6.6 6.4 6.3 6.4 6.4 6.3 6.5 6.7 6.7 6.6 6.8 6.9 6.9 6.8 7.0 7.3 7.2 7.0 6.9 7.0 6.4 6.4 6.2 6.2 6.5 6.5 6.5 6.3 6.5 6.3 6.1 6.3 6.3 6.5 6.5 6.7 6.6 6.6 6.9 7.1 7.5 7.6 7.5 7.5 7.4 7.3 7.3 7.2
7.6 7.6 7.5 7.4 7.1 6.8 6.5 6.1 6.0 6.2 6.3 6.4 6.3 6.8 6.8 6.8 6.7 6.6 6.8 6.9 7.1 7.2 6.9 7.0 7.2 7.2 6.6 6.4 6.2 6.3 6.4 6.3 6.1 6.1 6.1 6.2 6.5 6.7 6.6 6.7 6.5 6.7 6.7 6.9 7.3 7.6 7.7 7.6 7.6 7.4 7.3 7.3 7.2 7.1
7.4 7.4 7.4 7.3 7.0 6.8 6.5 6.5 6.6 6.4 6.1 6.5 6.7 6.9 6.9 6.7 7.0 7.0 6.9 7.0 6.8 6.8 7.0 6.7 6.8 7.0 6.6 6.6 6.4 6.4 6.5 6.5 6.3 6.3 6.4 6.1 6.6 6.8 6.9 6.8 6.8 6.7 6.9 7.4 7.6 7.8 7.7 7.6 7.4 7.4 7.2 7.2 7.1 7.0
7.5 7.4 7.4 7.1 6.9 6.7 6.7 6.7 6.6 6.6 6.2 6.4 6.2 6.7 6.8 6.7 6.8 6.9 6.8 6.8 7.1 7.5 7.5 7.4 7.3 6.9 6.6 6.6 6.6 6.8 6.7 6.3 6.4 6.1 6.0 6.5 6.9 6.9 7.0 6.9 6.9 7.0 7.3 7.6 7.8 7.8 7.7 7.5 7.4 7.3 7.2 7.1 7.0 6.9
7.5 7.6 7.3 7.0 6.7 6.6 6.6 6.7 6.7 6.5 6.4 6.6 6.6 6.7 6.8 6.8 6.5 6.6 7.0 7.3 7.5 7.5 7.5 7.2 6.9 6.7 6.8 6.7 6.8 6.7 6.4 6.4 6.0 6.0 6.4 6.8 7.0 6.9 6.9 6.9 7.0 7.2 7.5 7.7 7.7 7.7 7.6 7.5 7.3 7.3 7.2 7.0 7.0 6.8
7.6 7.4 7.1 6.8 6.7 6.6 6.4 6.4 6.4 6.3 6.5 6.7 6.7 6.7 6.8 7.1 7.3 7.1 6.9 6.9 7.2 7.4 7.3 6.8 6.7 6.7 6.7 6.7 6.7 6.6 6.5 6.1 6.2 6.6 6.8 7.0 7.1 6.9 6.9 7.0 7.2 7.3 7.6 7.6 7.7 7.7 7.6 7.5 7.3 7.3 7.1 7.1 7.0 6.8
7.5 7.3 7.1 7.1 7.0 6.9 6.6 6.5 6.5 6.7 7.1 7.2 7.0 7.0 6.9 6.9 6.9 6.8 6.9 6.8 7.0 7.2 6.7 6.7 6.7 6.7 6.7 6.8 6.7 6.7 6.5 6.7 6.8 6.9 7.0 6.9 6.9 6.8 6.9 7.2 7.2 7.4 7.6 7.7 7.7 7.6 7.6 7.4 7.3 7.3 7.2 7.1 7.0 6.9
7.5 7.7 7.3 7.2 7.3 7.1 6.7 6.9 7.2 7.5 7.4 7.1 6.8 6.6 6.6 6.6 6.5 6.6 6.4 6.8 6.8 6.6 6.6 6.5 6.6 6.7 6.7 6.7 6.8 6.6 6.9 7.1 7.2 7.1 6.9 6.9 6.9 6.9 7.0 7.2 7.3 7.6 7.6 7.8 7.7 7.5 7.5 7.4 7.3 7.3 7.1 7.1 7.1 6.9
7.6 7.5 7.5 7.3 7.3 7.3 7.3 7.4 7.7 7.5 7.4 7.0 7.0 7.0 7.0 6.9 6.8 6.8 6.8 6.8 6.7 6.6 6.7 7.0 6.8 6.8 6.9 6.7 6.9 7.0 7.4 7.5 7.2 7.0 7.1 7.0 6.9 7.0 7.1 7.2 7.4 7.5 7.6 7.7 7.6 7.6 7.6 7.4 7.2 7.2 7.1 7.1 7.1 7.0
7.5 7.5 7.6 7.5 7.3 7.2 7.3 7.4 7.9 7.6 7.5 7.5 7.5 7.4 7.3 7.3 7.2 7.1 7.0 7.0 6.8 6.7 6.9 6.8 6.8 6.9 7.0 6.9 6.8 7.0 7.3 7.3 7.1 7.0 7.0 6.9 6.9 7.0 7.1 7.2 7.4 7.5 7.5 7.5 7.6 7.5 7.5 7.4 7.2 7.2 7.1 7.0 7.0 7.0
7.5 7.6 7.7 7.5 7.3 7.2 7.4 7.4 7.8 7.4 7.5 7.5 7.6 7.6 7.6 7.5 7.4 7.3 7.2 7.2 7.0 6.9 6.7 6.8 7.0 7.0 7.0 7.0 7.1 7.3 7.4 7.2 6.9 6.8 6.8 6.9 7.0 7.2 7.2 7.4 7.5 7.4 7.4 7.4 7.4 7.3 7.4 7.3 7.2 7.1 7.0 6.9 6.8 7.0
7.5 7.5 7.4 7.3 7.2 7.3 7.3 7.5 7.7 7.6 7.5 7.6 7.6 7.6 7.4 7.6 7.5 7.3 7.2 7.2 7.2 7.1 6.9 7.0 7.1 7.1 7.0 7.1 7.3 7.3 7.2 7.0 6.8 6.7 6.8 6.9 6.9 7.0 7.1 7.3 7.3 7.3 7.3 7.3 7.3 7.2 7.2 7.2 7.0 7.0 7.0 7.0 6.8 6.7
7.5 7.3 7.2 7.3 7.4 7.5 7.5 7.8 7.8 7.8 7.5 7.6 7.7 7.7 7.8 7.6 7.6 7.5 7.2 6.9 6.6 7.0 7.0 7.0 7.2 7.1 7.0 7.2 7.1 7.1 7.0 6.9 6.7 6.7 6.9 7.0 7.0 7.1 7.3 7.2 7.4 7.4 7.4 7.4 7.2 7.2 7.0 6.9 7.0 7.0 7.0 6.9 6.8 6.6
7.7 7.7 7.7 7.6 7.5 7.6 7.7 7.8 7.8 7.7 7.8 7.9 7.9 7.9 7.8 7.5 7.3 7.1 6.9 6.7 6.9 7.0 6.7 6.8 6.7 6.8 6.9 7.0 7.1 7.1 7.1 7.0 6.9 7.0 7.2 7.1 7.3 7.4 7.5 7.4 7.4 7.4 7.4 7.3 7.2 7.1 7.1 6.8 6.7 6.9 6.9 6.7 6.6 6.5
7.4 7.6 7.6 7.6 7.6 7.8 7.7 7.8 7.7 7.8 7.7 7.8 7.6 7.7 7.1 7.2 7.2 6.8 6.6 6.5 7.1 7.0 6.9 6.8 6.8 6.9 7.0 7.1 7.2 7.3 7.3 7.0 7.0 7.2 7.3 7.3 7.4 7.5 7.5 7.5 7.5 7.4 7.4 7.5 7.5 7.4 7.2 7.1 6.8 6.8 6.6 6.4 6.2 6.1
7.4 7.3 7.4 7.4 7.6 7.8 7.9 7.9 7.9 7.9 8.0 8.0 7.8 7.7 7.3 7.4 7.1 6.8 6.6 6.7 7.0 7.1 7.2 7.1 7.0 7.1 7.1 7.2 7.4 7.5 7.5 7.4 7.4 7.3 7.5 7.4 7.5 7.5 7.7 7.6 7.6 7.5 7.4 7.4 7.4 7.3 7.0 6.8 6.7 6.4 6.3 6.1 5.9 5.7
7.4 7.5 7.6 7.7 7.8 7.8 7.9 8.0 8.0 8.0 7.8 7.7 7.6 7.5 7.6 7.4 7.2 7.1 7.0 7.6 7.7 7.7 7.5 7.5 7.5 7.4 7.4 7.6 7.5 7.6 7.6 7.5 7.5 7.6 7.8 7.7 7.5 7.6 7.6 7.6 7.5 7.5 7.4 7.2 6.9 6.9 6.7 6.5 6.3 6.2 5.9 5.7 5.5 5.3
7.3 7.3 7.3 7.4 7.5 7.6 7.6 7.7 7.6 7.6 7.6 7.5 7.5 7.4 7.2 7.2 7.2 7.4 7.7 7.5 7.6 7.5 7.5 7.4 7.3 7.3 7.4 7.4 7.5 7.6 7.7 7.8 7.7 7.7 7.7 7.6 7.5 7.5 7.4 7.3 7.3 7.2 7.2 6.8 6.7 6.5 6.4 6.1 5.9 5.7 5.5 5.3 5.0 4.8
7.0 7.1 7.2 7.2 7.3 7.3 7.4 7.5 7.5 7.6 7.7 7.5 7.4 7.4 7.3 7.3 7.4 7.4 7.4 7.4 7.2 7.2 7.1 7.1 7.2 7.3 7.3 7.4 7.5 7.6 7.7 7.8 7.7 7.7 7.6 7.5 7.4 7.3 7.2 7.1 7.0 6.9 6.7 6.5 6.3 6.1 5.9 5.7 5.5 5.4 4.9 4.6 4.4 4.1
6.8 6.9 6.9 7.1 7.2 7.2 7.4 7.4 7.4 7.4 7.3 7.3 7.2 7.3 7.1 7.1 7.0 6.9 7.0 7.0 6.9 7.0 7.1 7.1 7.1 7.1 7.2 7.2 7.3 7.4 7.4 7.4 7.3 7.3 7.2 7.3 7.4 6.9 6.8 6.7 6.5 6.3 6.2 6.0 5.8 5.6 5.4 5.2 5.1 4.8 4.6 4.4 4.1 3.7
6.8 6.8 6.9 6.9 7.1 7.1 7.2 7.1 7.1 6.9 7.0 7.1 7.0 7.0 7.0 7.0 6.8 6.7 6.7 6.7 6.7 6.7 6.8 6.9 6.9 7.0 7.0 7.0 7.1 7.1 7.0 6.8 6.7 6.7 6.7 6.6 6.6 6.4 6.2 6.1 6.0 5.9 5.7 5.6 5.4 5.2 4.9 4.7 4.5 4.2 3.9 3.7 3.4 3.2
6.5 6.6 6.6 6.7 6.7 6.8 6.8 6.7 6.8 6.8 6.8 6.8 6.8 6.8 6.9 6.8 6.7 6.7 6.6 6.5 6.5 6.4 6.4 6.5 6.5 6.5 6.5 6.6 6.6 6.6 6.5 6.5 6.3 6.2 6.1 6.0 5.9 5.8 5.6 5.5 5.4 5.3 5.2 5.0 4.9 4.7 4.5 4.1 4.0 3.7 3.6 3.3 3.1 2.8
6.6 6.7 6.6 6.4 6.3 6.8 6.5 6.5 6.6 6.6 6.7 6.6 6.7 6.7 6.6 6.6 6.6 6.6 6.5 6.3 6.2 6.2 6.1 6.0 6.1 6.2 6.2 6.1 6.1 6.1 6.0 5.9 5.8 5.7 5.6 5.6 5.5 5.3 5.2 5.2 5.1 5.0 4.9 4.7 4.5 4.3 4.1 3.9 3.7 3.4 3.1 2.8 2.7 2.7
6.2 6.2 6.2 6.1 6.2 6.3 6.4 6.1 6.0 6.0 6.0 6.1 6.4 6.3 6.1 6.0 5.8 5.9 5.9 5.8 5.7 5.7 5.7 5.8 5.8 5.8 5.8 5.8 5.7 5.6 5.6 5.4 5.3 5.2 5.2 5.1 5.0 4.9 4.9 4.9 4.8 4.8 4.7 4.5 4.4 4.2 4.0 3.8 3.5 3.3 3.0 2.9 2.8 2.8
Wind_Speed
17 14 15 20 22 20 18 14 13 13 11 5 4 4 5 1 8 4 2 5 1 5 12 8 16 11 12 9 8 12 7 4 5 6 5 2 2 5 6 12 10 8 6 5 7 6 5 4 10 4 7 6 6 6
19 18 14 22 22 21 18 13 14 12 10 7 7 3 4 6 12 6 2 1 4 7 8 14 16 13 13 8 9 9 2 11 5 4 2 2 2 2 9 4 10 2 1 1 4 4 9 9 13 10 7 8 6 5
20 15 14 23 21 21 18 15 15 12 10 8 6 5 1 7 12 5 2 5 6 7 7 7 9 12 13 11 6 7 4 3 2 1 1 3 2 2 4 4 7 4 2 4 3 9 11 11 10 10 9 8 7 5
22 22 15 24 22 20 19 17 15 13 10 8 6 5 1 4 9 9 2 5 2 5 5 7 8 12 8 9 11 8 8 3 3 2 2 1 1 1 2 6 3 2 8 6 6 9 9 7 9 9 9 7 7 8
19 12 18 24 21 22 21 17 14 12 11 9 8 5 4 5 10 3 3 4 3 1 6 9 13 12 11 10 11 9 7 6 4 2 1 1 2 2 2 5 4 5 5 5 2 11 4 11 10 9 9 8 7 5
21 9 26 25 24 23 21 18 14 12 12 12 11 5 6 7 8 1 3 5 9 9 7 4 5 8 10 10 9 8 5 3 3 2 3 3 3 3 2 3 8 10 9 7 5 8 11 12 9 9 8 7 7 7
18 11 26 25 24 24 21 18 15 14 14 12 8 4 3 5 5 2 2 3 12 4 4 5 4 3 3 5 6 5 3 2 3 3 3 3 3 3 1 2 10 10 8 9 13 14 10 12 6 9 8 9 8 9
14 25 27 26 25 25 22 19 17 15 14 14 14 12 11 15 12 5 4 9 12 2 3 3 3 5 1 3 4 2 3 2 3 2 1 3 3 2 1 12 13 11 12 11 11 2 11 10 11 9 9 8 7 7
16 28 28 27 25 22 20 18 20 16 15 14 9 1 2 3 3 2 8 16 5 2 2 3 7 4 4 2 4 2 2 2 2 1 2 1 3 2 4 13 13 15 10 12 9 11 12 12 11 9 8 7 6 7
27 28 28 28 23 22 22 21 21 16 12 8 2 3 3 2 6 9 0 3 2 2 2 3 5 4 7 3 2 2 1 1 1 1 3 1 0 3 4 12 12 13 12 14 14 13 12 11 10 10 9 7 6 7
27 29 30 28 27 25 22 20 18 11 3 2 2 2 2 3 1 2 2 1 2 3 2 4 7 7 4 3 2 1 1 1 3 2 3 3 3 7 8 11 10 10 12 12 11 11 11 11 10 9 8 6 7 8
30 30 29 27 24 22 19 17 12 3 3 4 5 3 1 0 1 3 2 0 1 3 3 6 6 5 3 2 3 2 2 1 0 3 2 2 4 12 12 12 11 9 10 9 7 8 8 9 9 8 8 8 8 9
30 29 27 26 25 24 22 15 2 11 9 2 2 3 0 1 2 2 3 3 4 3 3 5 4 2 3 3 2 2 2 2 6 2 2 2 9 9 11 10 9 9 8 8 6 7 9 7 6 7 8 9 10 9
30 29 29 27 23 21 15 14 12 1 2 2 2 4 2 3 2 5 6 5 3 3 6 6 3 2 2 2 1 3 0 2 2 3 4 5 9 10 10 9 10 12 7 8 10 11 10 9 9 9 9 8 9 7
28 30 27 23 22 19 15 10 3 2 3 3 3 3 3 3 5 2 3 4 2 1 4 4 2 2 2 3 1 2 1 3 4 2 3 5 9 9 10 10 9 9 9 9 9 8 8 8 8 8 6 7 7 6
32 25 15 23 20 17 12 5 2 1 2 3 3 3 4 5 3 2 4 3 2 1 2 1 3 2 2 3 4 3 3 3 1 4 4 6 5 6 7 6 10 9 8 8 8 8 7 7 8 8 7 7 6 6
13 3 20 21 18 13 6 3 2 3 3 3 3 4 4 5 4 2 2 2 2 1 2 1 3 2 3 3 4 2 0 3 3 4 4 6 6 6 7 9 9 9 8 9 8 8 8 8 8 9 9 8 7 7
11 16 21 17 15 5 2 3 3 3 5 3 4 3 3 3 2 3 2 3 1 1 1 2 4 1 2 3 3 2 4 4 5 4 4 4 6 6 7 10 8 8 9 8 9 8 9 9 9 8 8 9 7 7
15 16 16 14 4 2 2 3 3 4 4 4 3 3 2 2 3 4 2 2 2 2 2 2 1 1 3 4 5 5 4 3 3 3 3 3 5 7 7 7 8 8 9 9 10 8 8 10 8 7 7 8 7 7
22 19 13 9 6 1 3 2 2 4 3 3 2 3 3 3 3 1 3 2 1 1 1 1 3 3 3 3 4 3 3 3 3 3 3 3 3 6 8 8 7 9 8 8 8 8 7 8 7 7 7 8 7 7
12 7 9 8 3 6 3 2 3 3 4 2 3 3 3 2 2 1 0 2 2 1 1 4 4 4 1 1 4 5 3 5 4 4 3 4 5 6 6 6 7 7 7 7 7 8 8 8 7 7 7 7 7 6
2 4 3 5 3 3 4 4 3 2 2 4 3 1 3 1 1 1 2 1 1 3 3 3 5 4 5 3 5 5 5 6 4 2 2 7 6 6 6 6 6 7 7 7 7 7 8 7 6 7 7 6 6 6
7 1 2 2 3 3 1 3 2 3 3 3 2 2 2 1 2 2 1 1 3 3 4 5 5 4 4 5 5 3 1 4 4 3 2 3 2 4 4 6 6 6 7 6 6 6 6 8 7 6 6 6 7 6
4 3 2 2 3 3 1 1 1 3 2 3 4 2 1 2 2 1 3 3 3 4 5 6 5 4 4 5 4 4 3 4 5 1 1 3 3 3 2 3 4 4 4 4 5 5 5 6 7 6 7 7 8 7
1 2 1 2 1 3 2 3 1 2 2 3 2 2 3 2 3 4 2 3 4 5 5 5 5 4 4 3 3 4 3 4 5 5 0 2 3 2 1 2 2 2 3 3 4 5 5 5 7 7 8 8 9 9
3 1 2 1 2 2 3 3 4 4 2 3 3 2 1 3 3 2 3 4 5 5 5 4 4 4 4 6 5 5 6 6 5 4 2 4 3 2 1 2 2 2 2 3 3 5 7 6 7 9 8 9 10 9
1 2 2 1 1 2 1 1 1 2 3 4 3 4 4 4 2 3 4 5 4 5 4 4 4 4 5 5 5 5 4 4 3 3 4 3 3 4 3 3 3 3 1 3 3 5 6 7 7 7 7 7 8 8
1 1 2 3 1 1 1 1 3 4 3 2 3 6 1 4 3 2 4 4 3 4 4 3 4 4 5 4 4 4 4 3 3 3 2 2 4 3 3 3 3 4 3 1 3 3 4 4 5 7 7 6 6 6
1 1 1 2 2 3 3 1 2 3 3 3 4 3 3 3 3 3 3 4 4 4 4 4 5 6 5 4 4 6 7 7 10 7 3 5 5 5 3 3 2 2 1 2 1 3 3 3 3 3 5 5 5 5
2 0 2 1 2 2 3 3 2 2 3 3 4 3 3 3 4 4 4 5 5 5 5 5 5 6 6 6 6 7 7 8 8 7 6 7 6 6 6 6 6 4 3 4 1 3 1 2 1 1 1 1 1 2
1 1 2 3 2 2 3 3 2 3 2 2 4 3 5 4 3 5 6 6 4 5 6 6 6 7 7 7 7 6 6 7 9 10 9 7 6 6 6 6 5 5 5 5 4 3 4 3 4 4 5 4 3 4
2 2 2 2 2 3 2 2 3 4 4 4 3 3 4 4 3 3 5 6 5 5 7 6 5 5 6 6 5 5 5 5 7 7 10 7 7 8 6 4 5 5 5 5 5 4 4 5 6 8 9 10 9 11
2 2 2 2 3 4 3 3 4 2 2 2 3 3 4 4 4 3 4 6 5 5 6 6 5 4 4 5 7 6 7 5 9 11 10 10 10 11 9 8 6 6 8 7 7 8 9 11 9 10 10 10 11 11
Wind_Direction
192 177 226 186 175 175 181 177 173 162 159 161 121 177 230 22 309 328 277 267 232 107 37 132 166 156 159 149 150 160 147 179 185 200 208 185 201 174 135 171 172 179 198 207 248 248 167 149 141 219 118 116 115 96
186 182 219 174 169 166 165 163 164 154 158 161 131 156 28 332 297 316 286 67 39 63 98 73 63 21 44 53 141 172 98 166 176 211 225 319 114 131 144 138 159 206 78 270 31 81 101 72 91 112 127 126 109 110
180 166 231 168 163 162 164 164 153 153 157 146 129 123 99 288 303 322 355 105 94 117 90 58 40 41 48 49 91 146 147 105 116 55 317 11 136 156 214 105 144 132 47 108 128 138 111 110 106 105 117 119 111 97
179 178 210 169 163 163 155 150 146 152 139 129 130 127 155 265 283 296 31 1 211 107 96 72 66 58 69 72 67 49 97 69 90 286 62 99 108 9 41 134 154 134 148 121 102 111 117 126 122 123 114 102 101 84
163 171 191 156 155 151 145 141 141 139 131 123 114 125 81 9 343 82 72 20 308 113 116 112 84 69 78 90 99 107 128 145 134 67 34 139 45 34 34 125 135 166 131 173 165 155 193 141 132 140 143 137 129 121
161 179 151 151 153 147 133 137 137 138 131 115 99 83 28 350 339 250 29 27 354 103 121 83 53 90 88 85 90 88 86 93 132 113 34 39 357 323 149 139 96 91 90 116 136 125 113 129 142 137 138 121 115 95
154 194 149 147 146 140 136 135 133 130 125 116 113 81 46 34 45 40 90 344 321 304 100 117 113 35 54 111 102 108 95 50 102 139 176 137 155 287 79 136 118 106 104 114 110 110 129 151 132 145 136 113 106 96
180 152 147 144 143 143 143 139 129 125 126 124 106 95 89 98 128 79 12 337 327 300 97 100 106 140 240 142 100 346 107 134 19 52 92 137 129 291 153 122 124 137 123 123 146 106 146 121 139 141 137 141 137 122
159 141 141 141 142 139 140 138 128 134 129 115 117 121 48 1 54 59 329 321 302 356 87 122 150 140 166 109 109 87 36 76 33 343 110 303 129 182 216 138 153 150 155 156 148 127 141 144 147 149 153 158 146 131
146 137 137 138 137 137 133 136 140 133 127 127 230 46 48 29 331 302 107 38 4 40 7 106 114 127 153 141 98 90 15 104 132 187 108 38 310 133 183 143 162 150 161 168 150 161 155 157 164 170 172 171 152 149
134 135 135 132 128 124 127 127 128 133 165 85 70 69 87 279 245 16 45 143 147 102 61 91 123 131 150 125 100 59 142 177 176 156 173 192 221 167 167 144 157 145 152 163 171 168 165 166 167 167 153 144 126 136
133 132 134 135 130 125 126 129 149 194 47 88 103 123 62 107 109 92 84 122 202 106 143 133 124 110 94 73 104 138 108 228 123 103 174 234 120 153 157 147 139 144 155 153 152 151 149 152 156 150 151 150 147 109
128 128 128 127 129 135 132 142 133 118 140 168 71 70 207 29 105 177 141 129 116 117 163 140 114 125 116 64 71 80 185 168 120 166 221 48 135 155 139 145 149 164 140 145 154 118 111 87 104 123 99 95 105 106
131 132 131 134 135 132 130 114 115 285 328 59 60 64 12 77 69 37 32 82 79 129 156 123 111 89 116 81 152 159 90 138 173 215 216 144 150 149 147 156 162 172 134 114 97 95 96 96 94 96 108 118 122 132
131 130 134 128 126 125 120 110 350 317 27 54 26 46 62 59 55 41 326 92 75 98 138 137 120 116 101 114 216 116 134 196 226 220 86 119 143 147 154 160 159 121 120 120 117 113 114 115 118 115 119 131 134 139
127 125 131 135 137 138 153 194 225 107 47 57 56 116 141 117 106 39 71 71 345 290 192 229 149 127 148 149 171 195 196 217 126 71 105 126 133 136 141 124 128 131 136 136 140 146 142 145 150 149 149 154 146 160
109 92 137 134 144 150 224 235 142 69 67 61 62 5 34 60 71 74 58 77 307 220 217 280 140 149 141 180 183 207 72 65 103 82 74 121 152 135 120 125 132 140 152 156 155 162 159 158 151 155 171 163 176 177
111 120 121 135 153 219 30 22 67 66 63 55 84 36 45 35 95 69 58 38 282 353 47 31 301 170 165 167 133 62 91 77 51 61 84 120 135 137 143 146 145 153 161 160 159 161 161 165 171 184 187 167 188 185
116 113 75 50 12 324 61 36 14 80 61 91 102 83 72 106 66 60 67 69 41 334 329 331 358 293 69 37 34 43 25 22 103 97 98 112 142 163 158 151 156 164 165 162 168 180 182 186 189 189 191 175 200 195
80 57 39 11 326 95 74 50 326 100 98 85 107 112 78 77 63 21 319 61 63 327 28 5 32 41 31 30 12 10 0 355 120 136 132 158 160 170 181 171 177 172 168 174 187 189 185 188 204 207 196 187 200 207
82 351 7 345 21 30 60 53 55 86 141 109 133 142 79 140 131 149 96 81 8 310 68 52 73 68 9 45 14 337 25 351 347 353 31 151 171 192 181 190 176 178 186 187 195 197 206 202 197 209 202 197 193 222
80 335 21 4 46 44 47 350 93 121 88 126 152 141 105 154 198 225 296 174 279 64 54 25 37 5 333 359 354 332 330 315 283 284 217 111 159 192 175 193 188 195 203 199 203 208 201 210 202 202 197 194 187 204
121 139 6 346 61 53 28 313 88 153 125 142 148 128 140 218 47 335 265 294 75 55 55 43 347 296 297 304 285 246 275 299 294 264 124 244 209 202 188 182 197 206 218 216 205 209 202 197 206 199 189 192 194 205
32 67 57 49 40 94 304 300 112 120 82 173 163 190 144 120 136 228 261 112 100 99 61 17 345 340 350 25 14 23 10 339 306 290 6 287 258 208 181 175 192 211 224 227 213 204 201 186 196 195 191 201 207 209
157 43 317 84 175 142 148 144 216 139 148 182 142 238 139 153 221 217 209 105 114 80 51 10 347 2 342 352 2 12 13 2 340 335 50 268 314 9 150 224 170 185 181 216 224 202 196 182 192 197 204 212 215 208
71 50 0 102 154 179 156 157 186 200 188 188 229 96 160 208 229 232 73 54 64 61 36 9 349 341 346 11 352 356 3 349 325 306 27 9 352 7 324 293 258 203 193 185 218 218 203 200 202 202 208 215 227 226
116 139 188 290 296 182 161 259 155 181 196 216 175 166 190 229 196 82 103 29 24 25 346 338 329 342 337 334 341 337 336 339 352 341 340 351 15 12 9 6 11 20 168 171 214 238 227 212 212 210 211 219 224 215
332 68 215 168 237 263 226 258 209 221 216 134 167 200 275 20 71 54 43 21 346 320 315 351 22 344 309 336 336 332 338 320 260 253 251 96 70 58 37 19 44 12 3 353 269 251 252 249 239 211 216 225 227 222
213 45 284 181 269 213 234 262 38 62 359 324 330 73 87 63 37 30 27 357 348 11 26 13 14 344 353 345 77 36 23 17 7 11 13 96 98 55 13 14 12 9 341 320 204 321 332 274 312 262 218 224 230 235
147 157 276 163 227 254 80 9 76 83 37 65 107 118 104 101 52 23 26 25 29 23 11 25 31 13 19 9 21 70 48 31 23 19 15 28 31 29 21 11 8 9 8 324 269 166 75 286 185 257 254 208 235 241
72 206 244 238 251 86 96 111 129 134 124 84 29 76 107 128 116 59 29 3 18 40 23 22 45 33 20 22 15 15 29 35 20 18 11 0 19 19 14 7 1 343 338 333 332 298 181 220 219 224 220 206 100 64
192 251 295 254 139 109 162 209 189 200 156 164 129 118 150 169 108 81 22 360 20 30 26 11 12 16 6 9 11 24 22 41 26 16 16 9 3 349 2 5 355 356 1 27 34 41 49 47 62 73 76 78 76 79
254 249 262 278 189 196 149 244 196 156 113 73 69 50 43 37 77 81 55 21 4 13 359 347 336 327 331 19 23 7 11 49 77 50 35 28 21 11 14 7 21 36 44 49 50 52 60 70 73 76 78 79 81 80